Location: Arbon
(43.0005°N, 0.7472°E)
Time: 10:47:37
(UTC+00:00)

Meteor 2-15 - Pass Details

Date: 22 April 2026
Orbit: 937 x 954 km, 82.5° (Epoch: 15 May)

Event Time Altitude Azimuth Distance (km) Brightness Sun altitude
Rises 19:34:46 0° 186° (S) 3,585 7.3 -8.8°
Reaches altitude 10° 19:37:14 10° 186° (S) 2,647 6.6 -9.2°
Maximum altitude 19:43:18 90° 78° (ENE) 949 4.5 -10.2°
Drops below altitude 10° 19:49:26 10° 9° (N) 2,676 7.1 -11.2°
Sets 19:51:56 0° 9° (N) 3,628 7.8 -11.6°
